TimeEST,TemperatureF,Dew PointF,Humidity,Sea Level PressureIn,VisibilityMPH,Wind Direction,Wind SpeedMPH,Gust SpeedMPH,PrecipitationIn,Events,Conditions,WindDirDegrees,DateUTC
12:14 AM,39.2,35.6,87,30.05,10.0,WNW,8.1,-,N/A,,Mostly Cloudy,300,2013-11-07 05:14:00
12:35 AM,39.2,37.4,93,30.05,10.0,WNW,6.9,-,N/A,,Mostly Cloudy,300,2013-11-07 05:35:00
12:54 AM,39.2,37.4,93,30.06,10.0,West,5.8,-,N/A,,Mostly Cloudy,270,2013-11-07 05:54:00
1:15 AM,39.2,37.4,93,30.06,10.0,West,8.1,-,N/A,,Overcast,270,2013-11-07 06:15:00
1:34 AM,39.2,37.4,93,30.06,10.0,West,6.9,-,N/A,,Overcast,270,2013-11-07 06:34:00
1:54 AM,39.2,37.4,93,30.06,10.0,WNW,8.1,-,N/A,,Overcast,290,2013-11-07 06:54:00
2:15 AM,39.2,37.4,93,30.07,10.0,WNW,3.5,-,N/A,,Overcast,300,2013-11-07 07:15:00
2:35 AM,39.2,35.6,87,30.07,10.0,WNW,4.6,-,N/A,,Overcast,300,2013-11-07 07:35:00
2:54 AM,39.2,33.8,81,30.07,10.0,NW,9.2,18.4,N/A,,Overcast,310,2013-11-07 07:54:00
3:15 AM,39.2,33.8,81,30.08,10.0,NW,6.9,-,N/A,,Overcast,310,2013-11-07 08:15:00
3:35 AM,39.2,33.8,81,30.08,10.0,WNW,5.8,-,N/A,,Overcast,300,2013-11-07 08:35:00
3:54 AM,39.2,32.0,75,30.08,10.0,NW,9.2,16.1,N/A,,Mostly Cloudy,310,2013-11-07 08:54:00
4:15 AM,37.4,30.2,75,30.09,10.0,NW,16.1,20.7,N/A,,Mostly Cloudy,310,2013-11-07 09:15:00
4:35 AM,37.4,30.2,75,30.11,10.0,NW,5.8,16.1,N/A,,Scattered Clouds,320,2013-11-07 09:35:00
4:54 AM,35.6,28.4,75,30.11,10.0,NNW,6.9,-,N/A,,Scattered Clouds,330,2013-11-07 09:54:00
5:15 AM,35.6,28.4,75,30.12,10.0,NW,4.6,-,N/A,,Clear,310,2013-11-07 10:15:00
5:35 AM,35.6,28.4,75,30.12,10.0,Calm,Calm,-,N/A,,Clear,0,2013-11-07 10:35:00
5:54 AM,33.8,28.4,81,30.13,10.0,Calm,Calm,-,N/A,,Clear,0,2013-11-07 10:54:00
6:15 AM,33.8,28.4,81,30.13,10.0,Calm,Calm,-,N/A,,Clear,0,2013-11-07 11:15:00
6:35 AM,33.8,28.4,81,30.14,10.0,Calm,Calm,-,N/A,,Clear,0,2013-11-07 11:35:00
6:54 AM,33.8,28.4,81,30.14,10.0,Calm,Calm,-,N/A,,Scattered Clouds,0,2013-11-07 11:54:00
7:15 AM,33.8,28.4,81,30.15,10.0,Calm,Calm,-,N/A,,Scattered Clouds,0,2013-11-07 12:15:00
7:34 AM,33.8,28.4,81,30.15,10.0,Calm,Calm,-,N/A,,Scattered Clouds,0,2013-11-07 12:34:00
7:55 AM,33.8,28.4,81,30.16,10.0,Calm,Calm,-,N/A,,Clear,0,2013-11-07 12:55:00
8:15 AM,33.8,30.2,87,30.17,10.0,Calm,Calm,-,N/A,,Clear,0,2013-11-07 13:15:00
8:34 AM,35.6,30.2,81,30.17,10.0,Calm,Calm,-,N/A,,Clear,0,2013-11-07 13:34:00
8:55 AM,37.4,30.2,75,30.17,10.0,Calm,Calm,-,N/A,,Clear,0,2013-11-07 13:55:00
9:15 AM,37.4,30.2,75,30.17,10.0,Calm,Calm,-,N/A,,Clear,0,2013-11-07 14:15:00
9:34 AM,37.4,30.2,75,30.17,10.0,Calm,Calm,-,N/A,,Scattered Clouds,0,2013-11-07 14:34:00
9:55 AM,39.2,30.2,70,30.17,10.0,West,3.5,-,N/A,,Clear,280,2013-11-07 14:55:00
10:15 AM,39.2,30.2,70,30.18,10.0,WNW,4.6,-,N/A,,Scattered Clouds,290,2013-11-07 15:15:00
10:34 AM,39.2,30.2,70,30.18,10.0,West,10.4,16.1,N/A,,Mostly Cloudy,270,2013-11-07 15:34:00
10:55 AM,39.2,30.2,70,30.18,10.0,West,4.6,-,N/A,,Mostly Cloudy,270,2013-11-07 15:55:00
11:15 AM,41.0,30.2,65,30.18,10.0,WNW,5.8,-,N/A,,Scattered Clouds,290,2013-11-07 16:15:00
11:34 AM,42.8,30.2,61,30.18,10.0,West,12.7,19.6,N/A,,Mostly Cloudy,270,2013-11-07 16:34:00
11:55 AM,42.8,32.0,66,30.17,10.0,West,6.9,-,N/A,,Overcast,280,2013-11-07 16:55:00
12:15 PM,42.8,30.2,61,30.17,10.0,WNW,8.1,19.6,N/A,,Scattered Clouds,290,2013-11-07 17:15:00
12:34 PM,42.8,30.2,61,30.16,10.0,West,11.5,16.1,N/A,,Scattered Clouds,280,2013-11-07 17:34:00
12:55 PM,44.6,30.2,57,30.15,10.0,NW,17.3,24.2,N/A,,Scattered Clouds,310,2013-11-07 17:55:00
1:15 PM,44.6,26.6,49,30.14,10.0,WNW,9.2,-,N/A,,Scattered Clouds,290,2013-11-07 18:15:00
1:33 PM,46.4,26.6,46,30.14,10.0,West,17.3,24.2,N/A,,Scattered Clouds,280,2013-11-07 18:33:00
1:55 PM,46.4,26.6,46,30.14,10.0,West,15.0,20.7,N/A,,Clear,270,2013-11-07 18:55:00
2:15 PM,44.6,24.8,46,30.14,10.0,West,15.0,23.0,N/A,,Clear,280,2013-11-07 19:15:00
2:34 PM,44.6,24.8,46,30.14,10.0,WNW,12.7,23.0,N/A,,Scattered Clouds,290,2013-11-07 19:34:00
2:55 PM,42.8,26.6,53,30.13,10.0,West,12.7,23.0,N/A,,Mostly Cloudy,280,2013-11-07 19:55:00
3:15 PM,44.6,28.4,53,30.13,10.0,WNW,10.4,17.3,N/A,,Overcast,300,2013-11-07 20:15:00
3:34 PM,42.8,28.4,57,30.14,10.0,WNW,12.7,21.9,N/A,,Mostly Cloudy,300,2013-11-07 20:34:00
3:55 PM,42.8,28.4,57,30.14,10.0,West,10.4,18.4,N/A,,Overcast,280,2013-11-07 20:55:00
4:14 PM,41.0,28.4,61,30.13,10.0,WNW,6.9,17.3,N/A,,Overcast,290,2013-11-07 21:14:00
4:34 PM,41.0,30.2,65,30.13,10.0,WNW,9.2,-,N/A,,Overcast,290,2013-11-07 21:34:00
4:55 PM,41.0,30.2,65,30.13,10.0,WNW,4.6,-,N/A,,Overcast,290,2013-11-07 21:55:00
5:14 PM,41.0,30.2,65,30.12,10.0,West,3.5,-,N/A,,Overcast,260,2013-11-07 22:14:00
5:34 PM,41.0,30.2,65,30.12,10.0,West,5.8,-,N/A,,Overcast,280,2013-11-07 22:34:00
5:55 PM,39.2,28.4,65,30.13,10.0,West,13.8,19.6,N/A,,Overcast,270,2013-11-07 22:55:00
6:14 PM,39.2,30.2,70,30.13,10.0,West,9.2,16.1,N/A,Rain,Light Rain,280,2013-11-07 23:14:00
6:34 PM,39.2,32.0,75,30.14,10.0,WNW,4.6,-,N/A,,Overcast,300,2013-11-07 23:34:00
6:55 PM,37.4,33.8,87,30.15,10.0,WNW,5.8,-,N/A,Rain,Light Rain,300,2013-11-07 23:55:00
7:14 PM,37.4,33.8,87,30.15,7.0,West,10.4,-,N/A,Rain,Light Rain,260,2013-11-08 00:14:00
7:34 PM,35.6,33.8,93,30.14,10.0,West,5.8,-,N/A,,Overcast,260,2013-11-08 00:34:00
7:55 PM,35.6,33.8,93,30.14,10.0,WSW,5.8,-,N/A,,Mostly Cloudy,240,2013-11-08 00:55:00
8:14 PM,37.4,33.8,87,30.14,10.0,West,6.9,-,N/A,,Overcast,270,2013-11-08 01:14:00
8:34 PM,35.6,33.8,93,30.14,10.0,West,5.8,-,N/A,,Scattered Clouds,280,2013-11-08 01:34:00
8:55 PM,35.6,33.8,93,30.14,10.0,West,5.8,-,N/A,,Clear,280,2013-11-08 01:55:00
9:14 PM,35.6,33.8,93,30.14,10.0,West,5.8,-,N/A,,Mostly Cloudy,280,2013-11-08 02:14:00
9:34 PM,35.6,33.8,93,30.15,10.0,West,6.9,-,N/A,,Overcast,280,2013-11-08 02:34:00
9:55 PM,35.6,33.8,93,30.16,10.0,Calm,Calm,-,N/A,,Overcast,0,2013-11-08 02:55:00
10:14 PM,35.6,32.0,87,30.16,10.0,NNW,4.6,-,N/A,,Mostly Cloudy,330,2013-11-08 03:14:00
10:34 PM,35.6,32.0,87,30.16,10.0,Calm,Calm,-,N/A,,Overcast,0,2013-11-08 03:34:00
10:55 PM,35.6,32.0,87,30.16,10.0,Calm,Calm,-,N/A,,Overcast,0,2013-11-08 03:55:00
11:14 PM,35.6,32.0,87,30.16,10.0,Calm,Calm,-,N/A,,Overcast,0,2013-11-08 04:14:00
11:34 PM,35.6,32.0,87,30.16,10.0,Calm,Calm,-,N/A,,Overcast,0,2013-11-08 04:34:00
11:55 PM,33.8,32.0,93,30.16,10.0,Calm,Calm,-,N/A,,Mostly Cloudy,0,2013-11-08 04:55:00